User: anonymous
Location: Caltech
(34.1382°N, 118.1253°W)
Time: 20:37:19
(UTC-07:00)
Language:

TMSAT-1 - Orbit

View from above orbital plane
View from above orbital plane
View from above satellite
View from above satellite

Ground track
Ground track

The orbit data is extracted from the following two-line orbital elements,

1 25396U 98043C   14260.13026457  .00000121  00000-0  70895-4 0  9481
2 25396 098.4494 218.3474 0003004 040.2283 021.3499 14.24195072841242
Epoch (UTC): 17 September 2014 03:07:34
Eccentricity: 0.0003004
inclination: 98.4494°
perigee height: 809 km
apogee height: 813 km
right ascension of ascending node: 218.3474°
argument of perigee: 40.2283°
revolutions per day: 14.24195072
mean anomaly at epoch: 21.3499°
orbit number at epoch: 84124

The dashed part of the orbit path shows where the satellite is in the earth's shadow,  

DLR